Weather History for KSFY - August, 2014

Change the Weather History Date:

Monday, August 18, 2014

  Actual Average (KDBQ) Record (KDBQ)
Temperature  
Mean Temperature 74 °F 70 °F  
Max Temperature 87 °F 80 °F 107 °F (1936)
Min Temperature 62 °F 60 °F 46 °F (2002)
Degree Days  
Heating Degree Days 0 1  
Month to date heating degree days 3  
Since 1 June heating degree days 51  
Since 1 July heating degree days 11  
Cooling Degree Days 9 6  
Month to date cooling degree days 113  
Year to date cooling degree days 513  
Since 1 June cooling degree days 476  
Growing Degree Days 24 (Base 50)    
Moisture  
Dew Point 64 °F    
Average Humidity 73    
Maximum Humidity 93    
Minimum Humidity 48    
Precipitation  
Precipitation 0.00 in 0.15 in 3.55 in (1912)
Month to date precipitation 2.61  
Year to date precipitation 24.19  
Snow  
Snow 0.00 in 0.00 in - ()
Month to date snowfall 0.0  
Since 1 June snowfall 0.0  
Since 1 July snowfall 0.0  
Snow Depth -    
Sea Level Pressure  
Sea Level Pressure 29.85 in    
Wind  
Wind Speed 5 mph (South)    
Max Wind Speed 13 mph    
Max Gust Speed 17 mph    
Visibility 8 miles    
Events      
T = Trace of Precipitation, MM = Missing Value Source: NWS Daily Summary

Daily Weather History Graph

Daily Weather History Graph

Search for Another Location

Airport or City:

Trip Planner

Search our weather history database for the weather conditions in past years. The results will help you decide how hot, cold, wet, or windy it might be!

Date:

Astronomy

Aug. 18, 2014 Rise Set
Actual Time 6:11 AM CDT 7:56 PM CDT
Civil Twilight 5:41 AM CDT 8:26 PM CDT
Nautical Twilight 5:05 AM CDT 9:02 PM CDT
Astronomical Twilight 4:26 AM CDT 9:40 PM CDT
Moon 12:17 AM CDT (8/18) 3:01 PM CDT (8/18)
Length of Visible Light 14h 44m
Length of Day
13h 45m
Last Quarter, 38% of the Moon is Illuminated
Aug 18
Last Quarter
Aug 25
New
Sep 2
First Quarter
Sep 8
Full
Sep 15
Last Quarter

Hourly Weather History & Observations

Time (CDT) Temp. Heat Index Dew Point Humidity Pressure Visibility Wind Dir Wind Speed Gust Speed Precip Events Conditions
12:15 AM 67.6 °F - 63.7 °F 87% 29.93 in 10.0 mi SE 8.1 mph - N/A   Clear
12:35 AM 68.0 °F - 63.9 °F 87% 29.92 in 10.0 mi ESE 4.6 mph - N/A   Clear
12:55 AM 67.6 °F - 63.5 °F 87% 29.92 in 10.0 mi Calm Calm - N/A   Clear
1:15 AM 67.3 °F - 63.0 °F 86% 29.92 in 10.0 mi Calm Calm - N/A   Clear
1:35 AM 67.1 °F - 62.8 °F 86% 29.93 in 10.0 mi Calm Calm - N/A   Clear
1:55 AM 66.6 °F - 63.0 °F 88% 29.93 in 10.0 mi Calm Calm - N/A   Clear
2:15 AM 67.1 °F - 63.5 °F 88% 29.94 in 10.0 mi Calm Calm - N/A   Clear
2:35 AM 65.1 °F - 62.2 °F 90% 29.94 in 7.0 mi Calm Calm - N/A   Clear
2:55 AM 64.9 °F - 61.9 °F 90% 29.94 in 7.0 mi Calm Calm - N/A   Scattered Clouds
3:15 AM 64.4 °F - 61.7 °F 91% 29.93 in 5.0 mi East 3.5 mph - N/A   Mostly Cloudy
3:35 AM 64.9 °F - 62.6 °F 92% 29.92 in 5.0 mi ESE 3.5 mph - N/A   Overcast
3:55 AM 65.3 °F - 62.6 °F 91% 29.91 in 5.0 mi SE 4.6 mph - N/A   Overcast
4:15 AM 64.6 °F - 62.2 °F 92% 29.90 in 4.0 mi Calm Calm - N/A   Scattered Clouds
4:35 AM 63.5 °F - 61.2 °F 92% 29.90 in 5.0 mi SE 4.6 mph - N/A   Scattered Clouds
4:55 AM 63.5 °F - 61.5 °F 93% 29.89 in 3.0 mi SE 4.6 mph - N/A   Clear
5:15 AM 63.3 °F - 61.3 °F 93% 29.90 in 3.0 mi SSE 3.5 mph - N/A   Clear
5:35 AM 63.1 °F - 61.2 °F 93% 29.90 in 4.0 mi Calm Calm - N/A   Scattered Clouds
5:55 AM 62.8 °F - 60.8 °F 93% 29.90 in 4.0 mi ESE 4.6 mph - N/A   Scattered Clouds
6:15 AM 63.9 °F - 61.9 °F 93% 29.91 in 2.5 mi ESE 3.5 mph - N/A   Mostly Cloudy
6:35 AM 64.4 °F - 62.1 °F 92% 29.91 in 3.0 mi Calm Calm - N/A   Overcast
6:55 AM 64.6 °F - 62.6 °F 93% 29.91 in 2.5 mi Calm Calm - N/A   Overcast
7:15 AM 65.5 °F - 63.1 °F 92% 29.91 in 3.0 mi Calm Calm - N/A   Overcast
7:35 AM 66.2 °F - 63.1 °F 90% 29.91 in 4.0 mi ESE 4.6 mph - N/A   Overcast
7:55 AM 67.3 °F - 63.7 °F 88% 29.91 in 5.0 mi ESE 3.5 mph - N/A   Mostly Cloudy
8:15 AM 68.5 °F - 63.7 °F 84% 29.91 in 7.0 mi Calm Calm - N/A   Scattered Clouds
8:35 AM 69.8 °F - 63.5 °F 80% 29.91 in 7.0 mi Calm Calm - N/A   Scattered Clouds
8:55 AM 70.7 °F - 63.3 °F 77% 29.90 in 7.0 mi SE 4.6 mph - N/A   Clear
9:15 AM 72.0 °F - 63.7 °F 75% 29.90 in 10.0 mi SE 5.8 mph - N/A   Scattered Clouds
9:35 AM 73.4 °F - 64.0 °F 72% 29.89 in 7.0 mi SSE 3.5 mph - N/A   Scattered Clouds
9:55 AM 74.7 °F - 64.6 °F 71% 29.90 in 7.0 mi WSW 3.5 mph - N/A   Clear
10:15 AM 75.7 °F - 64.8 °F 69% 29.89 in 7.0 mi South 4.6 mph - N/A   Clear
10:35 AM 76.6 °F - 65.5 °F 68% 29.89 in 7.0 mi Calm Calm - N/A   Clear
10:55 AM 77.7 °F - 65.8 °F 67% 29.89 in 7.0 mi SSW 4.6 mph - N/A   Mostly Cloudy
11:15 AM 78.3 °F - 65.5 °F 65% 29.89 in 10.0 mi South 4.6 mph - N/A   Scattered Clouds
11:35 AM 79.2 °F - 65.3 °F 62% 29.89 in 10.0 mi SSW 5.8 mph - N/A   Clear
11:55 AM 80.1 °F 82.0 °F 65.7 °F 61% 29.88 in 10.0 mi WSW 6.9 mph - N/A   Clear
12:15 PM 81.0 °F 82.9 °F 65.3 °F 59% 29.88 in 10.0 mi SSW 9.2 mph - N/A   Clear
12:35 PM 82.0 °F 83.9 °F 65.5 °F 57% 29.87 in 10.0 mi SSW 8.1 mph - N/A   Clear
12:55 PM 82.9 °F 84.8 °F 65.1 °F 55% 29.86 in 10.0 mi South 9.2 mph - N/A   Clear
1:15 PM 84.2 °F 85.6 °F 64.4 °F 51% 29.86 in 10.0 mi South 9.2 mph - N/A   Clear
1:35 PM 84.9 °F 86.6 °F 64.8 °F 51% 29.85 in 10.0 mi SW 9.2 mph - N/A   Scattered Clouds
1:55 PM 84.2 °F 86.1 °F 65.3 °F 53% 29.85 in 10.0 mi SW 10.4 mph - N/A   Scattered Clouds
2:15 PM 84.7 °F 86.3 °F 64.6 °F 51% 29.85 in 10.0 mi South 10.4 mph - N/A   Clear
2:35 PM 86.2 °F 87.6 °F 64.4 °F 48% 29.84 in 10.0 mi South 10.4 mph - N/A   Clear
2:55 PM 86.4 °F 87.8 °F 64.4 °F 48% 29.83 in 10.0 mi South 12.7 mph 17.3 mph N/A   Scattered Clouds
3:15 PM 86.0 °F 87.3 °F 64.2 °F 48% 29.83 in 10.0 mi SW 10.4 mph - N/A   Scattered Clouds
3:35 PM 85.3 °F 86.8 °F 64.6 °F 50% 29.82 in 10.0 mi SSW 11.5 mph - N/A   Mostly Cloudy
3:55 PM 85.8 °F 87.4 °F 64.6 °F 49% 29.82 in 10.0 mi SW 10.4 mph - N/A   Mostly Cloudy
4:15 PM 83.8 °F 85.6 °F 65.1 °F 53% 29.81 in 10.0 mi SSW 9.2 mph - N/A   Mostly Cloudy
4:35 PM 85.5 °F 87.1 °F 64.9 °F 50% 29.80 in 10.0 mi SSW 10.4 mph - N/A   Mostly Cloudy
4:55 PM 85.3 °F 87.1 °F 65.5 °F 51% 29.79 in 10.0 mi SSW 10.4 mph - N/A   Mostly Cloudy
5:15 PM 85.3 °F 87.1 °F 65.5 °F 51% 29.78 in 10.0 mi SSW 9.2 mph - N/A   Scattered Clouds
5:35 PM 84.6 °F 86.8 °F 66.2 °F 54% 29.78 in 10.0 mi SSW 8.1 mph - N/A   Scattered Clouds
5:55 PM 84.2 °F 86.1 °F 65.1 °F 53% 29.78 in 10.0 mi SW 10.4 mph - N/A   Scattered Clouds
6:15 PM 83.5 °F 85.3 °F 65.5 °F 54% 29.77 in 10.0 mi SSW 8.1 mph - N/A   Clear
6:35 PM 82.9 °F 85.0 °F 65.7 °F 56% 29.76 in 10.0 mi SSW 9.2 mph - N/A   Clear
6:55 PM 82.4 °F 84.2 °F 65.3 °F 56% 29.76 in 10.0 mi SW 6.9 mph - N/A   Clear
7:15 PM 81.5 °F 83.6 °F 65.8 °F 59% 29.76 in 10.0 mi SW 9.2 mph - N/A   Clear
7:35 PM 80.2 °F 82.5 °F 66.4 °F 63% 29.76 in 10.0 mi SW 5.8 mph - N/A   Clear
7:55 PM 79.5 °F - 66.6 °F 64% 29.76 in 10.0 mi SW 8.1 mph - N/A   Clear
8:15 PM 78.4 °F - 66.9 °F 68% 29.76 in 10.0 mi SW 6.9 mph - N/A   Clear
8:35 PM 77.7 °F - 67.1 °F 70% 29.76 in 10.0 mi SSW 5.8 mph - N/A   Clear
8:55 PM 76.3 °F - 67.5 °F 74% 29.76 in 10.0 mi SSW 6.9 mph - N/A   Clear
9:15 PM 75.6 °F - 67.3 °F 75% 29.76 in 10.0 mi South 4.6 mph - N/A   Clear
9:35 PM 72.1 °F - 67.1 °F 84% 29.76 in 10.0 mi South 4.6 mph - N/A   Clear
9:55 PM 72.7 °F - 67.1 °F 83% 29.77 in 10.0 mi South 3.5 mph - N/A   Clear
10:15 PM 72.0 °F - 66.4 °F 83% 29.77 in 10.0 mi South 5.8 mph - N/A   Clear
10:35 PM 71.6 °F - 66.6 °F 84% 29.76 in 10.0 mi SSE 5.8 mph - N/A   Clear
11:15 PM 71.2 °F - 67.1 °F 87% 29.77 in 7.0 mi South 6.9 mph - N/A   Clear
11:55 PM 70.7 °F - 67.1 °F 88% 29.76 in 7.0 mi SSE 6.9 mph - N/A   Clear